This is the latest recevied weather packets stored in our database for station/object WW5JC. If no packets are shown the sender has not sent any weather packets the latest 10 day(s).
| Time | Temp. | Humidity | Pressure | Rain* | Wind** | Luminosity | Snow |
|---|---|---|---|---|---|---|---|
| 1787793316 | 32.78° C | 57% | 1013.4 hPa | 0 mm | - | 0 W/m² | - |
| 1787793016 | 32.78° C | 56% | 1013.5 hPa | 0 mm | - | 0 W/m² | - |
| 1787792711 | 33.33° C | 55% | 1013.5 hPa | 0 mm | - | 1 W/m² | - |
| 1787792410 | 33.33° C | 55% | 1013.2 hPa | 0 mm | - | 2 W/m² | - |
| 1787792108 | 33.33° C | 54% | 1013.6 hPa | 0 mm | - | 3 W/m² | - |
| 1787791806 | 33.33° C | 54% | 1013.4 hPa | 0 mm | - | 5 W/m² | - |
| 1787791501 | 33.89° C | 53% | 1013.4 hPa | 0 mm | - | 8 W/m² | - |
| 1787791196 | 33.89° C | 53% | 1013.6 hPa | 0 mm | - | 13 W/m² | - |
| 1787790892 | 33.89° C | 53% | 1013.7 hPa | 0 mm | - | 18 W/m² | - |
| 1787790587 | 33.89° C | 52% | 1013.6 hPa | 0 mm | - | 23 W/m² | - |
| 1787790282 | 34.44° C | 51% | 1013.4 hPa | 0 mm | - | 28 W/m² | - |
| 1787789978 | 34.44° C | 52% | 1013.6 hPa | 0 mm | - | 33 W/m² | - |
| 1787789677 | 34.44° C | 53% | 1013.4 hPa | 0 mm | - | 39 W/m² | - |
| 1787789372 | 34.44° C | 52% | 1013.5 hPa | 0 mm | - | 49 W/m² | - |
| 1787789067 | 35° C | 51% | 1013.3 hPa | 0 mm | - | 64 W/m² | - |
| 1787788764 | 35° C | 50% | 1013.4 hPa | 0 mm | - | 84 W/m² | - |
| 1787788459 | 35° C | 49% | 1013.3 hPa | 0 mm | - | 92 W/m² | - |
| 1787788154 | 35.56° C | 48% | 1012.9 hPa | 0 mm | - | 96 W/m² | - |
| 1787787848 | 35° C | 48% | 1013 hPa | 0 mm | - | 103 W/m² | - |
| 1787787548 | 35.56° C | 48% | 1012.9 hPa | 0 mm | - | 106 W/m² | - |
| 1787787242 | 35.56° C | 48% | 1012.7 hPa | 0 mm | - | 109 W/m² | - |
| 1787786942 | 35.56° C | 47% | 1012.6 hPa | 0 mm | - | 113 W/m² | - |
| 1787786638 | 36.11° C | 48% | 1012.7 hPa | 0 mm | - | 121 W/m² | - |
| 1787786332 | 36.11° C | 47% | 1012.7 hPa | 0 mm | - | 123 W/m² | - |
| 1787786028 | 35.56° C | 48% | 1012.8 hPa | 0 mm | - | 120 W/m² | - |
* Rain latest hour (hover to see other rain measurements)
** Current wind speed in m/s (hover to see current wind gust speed)